Weather History for KSJC - June, 2013

Change the Weather History Date:

Sunday, June 9, 2013

  Actual Average Record
Temperature  
Mean Temperature 69 °F 67 °F  
Max Temperature 78 °F 79 °F 102 °F (1973)
Min Temperature 60 °F 55 °F 39 °F (1896)
Degree Days  
Heating Degree Days 0 1  
Month to date heating degree days 2 9  
Since 1 June heating degree days 2 9  
Since 1 July heating degree days 2061 1995  
Cooling Degree Days 4 3  
Month to date cooling degree days 28 24  
Year to date cooling degree days 95 94  
Since 1 June cooling degree days 28 24  
Growing Degree Days 19 (Base 50)    
Moisture  
Dew Point 53 °F    
Average Humidity 61    
Maximum Humidity 78    
Minimum Humidity 43    
Precipitation  
Precipitation 0.00 in 0.00 in 0.17 in (2005)
Month to date precipitation 0.00 0.05  
Year to date precipitation 2.20 9.85  
Since 1 July precipitation 9.39 14.86  
Sea Level Pressure  
Sea Level Pressure 29.84 in    
Wind  
Wind Speed 10 mph (SSE)    
Max Wind Speed 17 mph    
Max Gust Speed 23 mph    
Visibility 10 miles    
Events      
T = Trace of Precipitation, MM = Missing Value Source: NWS Daily Summary

Daily Weather History Graph

Daily Weather History Graph

Search for Another Location

Airport or City:

Trip Planner

Search our weather history database for the weather conditions in past years. The results will help you decide how hot, cold, wet, or windy it might be!

Date:

Astronomy

Jun. 09, 2013 Rise Set
Actual Time 5:46 AM PDT 8:27 PM PDT
Civil Twilight 5:15 AM PDT 8:58 PM PDT
Nautical Twilight 4:37 AM PDT 9:37 PM PDT
Astronomical Twilight 3:54 AM PDT 10:20 PM PDT
Moon 6:46 AM PDT (6/9) 9:19 PM PDT (6/9)
Length of Visible Light 15h 42m
Length of Day
14h 41m
New Moon, 1% of the Moon is Illuminated
Jun 9
New Moon
Jun 16
First Quarter
Jun 23
Full
Jun 29
Last Quarter
Jul 8
New

Hourly Weather History & Observations

Time (PDT) Temp. Dew Point Humidity Pressure Visibility Wind Dir Wind Speed Gust Speed Precip Events Conditions
12:53 AM 62.1 °F 53.1 °F 72% 29.81 in 10.0 mi ESE 13.8 mph 24.2 mph N/A   Clear
1:53 AM 62.1 °F 53.1 °F 72% 29.81 in 10.0 mi SE 15.0 mph - N/A   Clear
2:53 AM 61.0 °F 53.1 °F 75% 29.81 in 10.0 mi SE 5.8 mph - N/A   Clear
3:53 AM 60.1 °F 53.1 °F 78% 29.81 in 10.0 mi ESE 9.2 mph - N/A   Clear
4:53 AM 61.0 °F 53.1 °F 75% 29.81 in 10.0 mi SE 10.4 mph - N/A   Clear
5:53 AM 60.1 °F 53.1 °F 78% 29.83 in 10.0 mi SSE 6.9 mph - N/A   Clear
6:53 AM 61.0 °F 53.1 °F 75% 29.84 in 10.0 mi SSE 5.8 mph - N/A   Clear
7:53 AM 63.0 °F 54.0 °F 72% 29.84 in 10.0 mi SE 8.1 mph - N/A   Clear
8:53 AM 66.9 °F 53.1 °F 61% 29.85 in 10.0 mi SSE 5.8 mph - N/A   Clear
9:53 AM 69.1 °F 53.1 °F 57% 29.86 in 10.0 mi South 10.4 mph 16.1 mph N/A   Clear
10:53 AM 71.1 °F 53.1 °F 53% 29.85 in 10.0 mi SE 12.7 mph 17.3 mph N/A   Clear
11:53 AM 75.9 °F 52.0 °F 43% 29.84 in 10.0 mi SSE 15.0 mph 23.0 mph N/A   Clear
12:53 PM 77.0 °F 54.0 °F 45% 29.84 in 10.0 mi SSW 6.9 mph - N/A   Clear
1:53 PM 78.1 °F 57.9 °F 50% 29.83 in 10.0 mi WNW 10.4 mph 17.3 mph N/A   Clear
2:53 PM 73.0 °F 57.0 °F 57% 29.83 in 10.0 mi NW 15.0 mph - N/A   Clear
3:53 PM 73.9 °F 55.9 °F 53% 29.83 in 10.0 mi NW 12.7 mph - N/A   Clear
4:53 PM 73.0 °F 55.0 °F 53% 29.83 in 10.0 mi Variable 4.6 mph - N/A   Clear
5:53 PM 71.1 °F 53.1 °F 53% 29.83 in 10.0 mi South 12.7 mph 16.1 mph N/A   Clear
6:53 PM 66.9 °F 53.1 °F 61% 29.84 in 10.0 mi South 12.7 mph 21.9 mph N/A   Clear
7:53 PM 64.9 °F 52.0 °F 63% 29.85 in 10.0 mi South 11.5 mph - N/A   Clear
8:53 PM 63.0 °F 52.0 °F 67% 29.84 in 10.0 mi SSW 12.7 mph - N/A   Clear
9:53 PM 62.1 °F 51.1 °F 67% 29.86 in 10.0 mi SSW 6.9 mph - N/A   Clear
10:53 PM 62.1 °F 50.0 °F 65% 29.87 in 10.0 mi SSW 5.8 mph - N/A   Clear
11:53 PM 61.0 °F 50.0 °F 67% 29.87 in 10.0 mi South 11.5 mph - N/A   Clear